CW3363 Weather Reports


time (UTC)temp
C
wind
direction
speed
KPH
gust
KPH
rain 1hr
cm
rain 24hr
cm
rain mn
cm
humidity
%
barometer
mb
20260510040829 25 127 9.7 19.3 0.00 0.00 0.00 88 1011.8
20260510040333 25 132 12.9 19.3 0.00 0.00 0.00 87 1011.8
20260510035857 25 127 6.4 9.7 0.00 0.00 0.00 87 1011.8
20260510035341 25 135 6.4 14.5 0.00 0.00 0.00 87 1011.8
20260510034825 25 128 8.0 16.1 0.00 0.00 0.00 87 1012.1
20260510034329 25 121 4.8 24.1 0.00 0.00 0.00 87 1012.1
20260510033834 25 119 14.5 24.1 0.00 0.00 0.00 87 1012.1
20260510033338 25 93 3.2 17.7 0.00 0.00 0.00 88 1011.9
20260510032822 25 120 1.6 11.3 0.00 0.00 0.00 88 1011.9
20260510032330 25 111 4.8 17.7 0.00 0.00 0.00 88 1011.9
20260510031854 25 127 8.0 20.9 0.00 0.00 0.00 88 1011.8
20260510031342 25 135 8.0 27.4 0.00 0.00 0.00 87 1011.8
20260510030824 25 120 17.7 27.4 0.00 0.00 0.00 87 1011.8
20260510030347 25 96 17.7 25.7 0.00 0.00 0.00 87 1011.7
20260510025829 25 134 8.0 17.7 0.00 0.00 0.00 86 1011.7
20260510025336 25 85 4.8 9.7 0.00 0.00 0.00 84 1011.7
20260510024823 25 73 3.2 4.8 0.00 0.00 0.00 83 1010.9
20260510024331 25 75 0.0 3.2 0.00 0.00 0.00 83 1010.9
20260510023835 25 42 0.0 6.4 0.00 0.00 0.00 82 1010.9
20260510023338 25 104 3.2 6.4 0.00 0.00 0.00 81 1010.4
20260510022822 25 135 3.2 6.4 0.00 0.00 0.00 80 1010.4
20260510022347 25 135 1.6 6.4 0.00 0.00 0.00 80 1010.4
20260510021850 25 123 0.0 11.3 0.00 0.00 0.00 79 1010.2
20260510021355 25 126 6.4 11.3 0.00 0.00 0.00 78 1010.2
20260510020838 25 143 6.4 9.7 0.00 0.00 0.00 78 1010.2
20260510020325 25 135 4.8 9.7 0.00 0.00 0.00 77 1009.6
20260510015827 25 124 6.4 9.7 0.00 0.00 0.00 77 1009.6
20260510015331 25 84 0.0 0.0 0.00 0.00 0.00 75 1009.6
20260510014839 25 84 0.0 0.0 0.00 0.00 0.00 75 1009.3
20260510014323 25 84 0.0 0.0 0.00 0.00 0.00 74 1009.3
20260510013825 26 84 0.0 0.0 0.00 0.00 0.00 73 1009.3
20260510013350 26 84 0.0 0.0 0.00 0.00 0.00 72 1009.5
20260510012837 26 84 0.0 0.0 0.00 0.00 0.00 71 1009.5
20260510012323 26 84 0.0 0.0 0.00 0.00 0.00 70 1009.5
20260510011829 26 84 0.0 3.2 0.00 0.00 0.00 70 1009.6
20260510011354 27 93 0.0 3.2 0.00 0.00 0.00 70 1009.6
20260510010838 27 9 0.0 11.3 0.00 0.00 0.00 70 1009.6
20260510010322 27 46 3.2 8.0 0.00 0.00 0.00 68 1009.0
20260510005846 27 9 3.2 14.5 0.00 0.00 0.00 62 1009.0
20260510005330 28 172 3.2 14.5 0.00 0.00 0.00 58 1009.0
20260510004834 28 178 3.2 9.7 0.00 0.00 0.00 59 1008.6
20260510004326 27 164 3.2 11.3 0.00 0.00 0.00 59 1008.6
20260510003829 27 181 4.8 11.3 0.00 0.00 0.00 61 1008.6
20260510003354 27 145 4.8 19.3 0.00 0.00 0.00 61 1008.7
20260510002835 28 183 6.4 20.9 0.00 0.00 0.00 60 1008.7
20260510002340 28 160 9.7 20.9 0.00 0.00 0.00 58 1008.7
20260510001826 30 175 6.4 11.3 0.00 0.00 0.00 65 1008.6
20260510001329 30 176 6.4 8.0 0.00 0.00 0.00 66 1008.6
20260510000832 30 152 4.8 11.3 0.00 0.00 0.00 67 1008.6
20260510000335 30 161 3.2 11.3 0.00 0.00 0.00 67 1008.4
20260509235837 30 198 4.8 11.3 0.00 0.00 0.00 67 1008.4
20260509235342 30 184 4.8 11.3 0.00 0.00 0.00 67 1008.4
20260509234826 30 205 0.0 11.3 0.00 0.00 0.00 67 1008.2
20260509234330 30 168 6.4 11.3 0.00 0.00 0.00 66 1008.2
20260509233832 31 236 0.0 0.0 0.00 0.00 0.00 71 1008.2
20260509233341 31 236 0.0 0.0 0.00 0.00 0.00 70 1008.1
20260509232826 31 236 0.0 0.0 0.00 0.00 0.00 67 1008.1
20260509232331 31 236 0.0 0.0 0.00 0.00 0.00 68 1008.1
20260509231835 31 236 0.0 0.0 0.00 0.00 0.00 66 1008.3
20260509231339 31 236 0.0 0.0 0.00 0.00 0.00 66 1008.3
20260509230844 31 236 0.0 0.0 0.00 0.00 0.00 65 1008.3
20260509230347 31 236 0.0 0.0 0.00 0.00 0.00 65 1008.1
20260509225828 31 236 0.0 0.0 0.00 0.00 0.00 63 1008.1
20260509225332 32 236 0.0 0.0 0.00 0.00 0.00 62 1008.1
20260509224900 32 236 0.0 0.0 0.00 0.00 0.00 60 1008.1
20260509224323 32 236 0.0 1.6 0.00 0.00 0.00 59 1008.1
20260509223832 33 236 0.0 3.2 0.00 0.00 0.00 59 1008.1
20260509223320 33 236 1.6 4.8 0.00 0.00 0.00 59 1008.1
20260509222827 33 236 1.6 4.8 0.00 0.00 0.00 59 1008.1
20260509222351 33 248 0.0 4.8 0.00 0.00 0.00 58 1008.1
20260509221854 33 254 1.6 3.2 0.00 0.00 0.00 60 1008.0
20260509221401 32 254 0.0 6.4 0.00 0.00 0.00 61 1008.0
20260509220826 32 254 3.2 6.4 0.00 0.00 0.00 61 1008.0
20260509220330 32 316 3.2 4.8 0.00 0.00 0.00 62 1008.0
20260509215835 32 316 1.6 8.0 0.00 0.00 0.00 63 1008.0
20260509215340 32 316 0.0 8.0 0.00 0.00 0.00 64 1008.0
20260509214823 32 329 3.2 6.4 0.00 0.00 0.00 64 1008.1
20260509214330 32 330 3.2 6.4 0.00 0.00 0.00 64 1008.1
20260509213832 32 134 4.8 6.4 0.00 0.00 0.00 64 1008.1
20260509213341 32 74 1.6 4.8 0.00 0.00 0.00 64 1008.1
20260509212825 32 217 1.6 4.8 0.00 0.00 0.00 64 1008.1
20260509212329 32 338 0.0 4.8 0.00 0.00 0.00 65 1008.1
20260509211832 32 65 0.0 4.8 0.00 0.00 0.00 64 1008.1
20260509211323 32 27 1.6 4.8 0.00 0.00 0.00 64 1008.1
20260509210828 31 72 1.6 4.8 0.00 0.00 0.00 66 1008.1
20260509210333 31 72 1.6 4.8 0.00 0.00 0.00 67 1008.6
20260509205835 31 80 0.0 6.4 0.00 0.00 0.00 68 1008.6
20260509205339 31 80 3.2 6.4 0.00 0.00 0.00 66 1008.6
20260509204823 31 11 0.0 3.2 0.00 0.00 0.00 67 1008.7
20260509204328 31 69 0.0 4.8 0.00 0.00 0.00 69 1008.7
20260509203831 31 10 0.0 4.8 0.00 0.00 0.00 70 1008.7
20260509203336 31 49 0.0 3.2 0.00 0.00 0.00 71 1008.8
20260509202841 31 49 0.0 4.8 0.00 0.00 0.00 70 1008.8
20260509202325 31 18 3.2 6.4 0.00 0.00 0.00 70 1008.8
20260509201836 31 143 3.2 6.4 0.00 0.00 0.00 70 1009.1
20260509201340 30 96 0.0 3.2 0.00 0.00 0.00 71 1009.1
20260509200825 30 113 0.0 4.8 0.00 0.00 0.00 70 1009.1
20260509200329 30 24 1.6 4.8 0.00 0.00 0.00 70 1009.1
20260509195832 31 319 1.6 4.8 0.00 0.00 0.00 70 1009.1
20260509195319 30 82 0.0 4.8 0.00 0.00 0.00 72 1009.1
20260509194825 30 324 1.6 4.8 0.00 0.00 0.00 69 1009.3
20260509194329 30 302 0.0 6.4 0.00 0.00 0.00 72 1009.3
20260509193833 30 358 3.2 6.4 0.00 0.00 0.00 71 1009.3
20260509193337 31 75 1.6 4.8 0.00 0.00 0.00 70 1009.4
20260509192825 31 317 1.6 4.8 0.00 0.00 0.00 68 1009.4
20260509192330 31 73 1.6 4.8 0.00 0.00 0.00 69 1009.4
20260509191833 31 226 1.6 4.8 0.00 0.00 0.00 69 1009.6
20260509191337 31 127 1.6 4.8 0.00 0.00 0.00 69 1009.6
20260509190841 30 304 1.6 9.7 0.00 0.00 0.00 69 1009.6
20260509190325 30 233 4.8 9.7 0.00 0.00 0.00 69 1009.6
20260509185848 30 42 0.0 6.4 0.00 0.00 0.00 71 1009.6
20260509185332 30 215 1.6 6.4 0.00 0.00 0.00 71 1009.6
20260509184838 30 298 0.0 9.7 0.00 0.00 0.00 70 1010.0
20260509184342 30 203 4.8 9.7 0.00 0.00 0.00 69 1010.0
20260509183826 30 310 3.2 9.7 0.00 0.00 0.00 70 1010.0
20260509183331 30 241 4.8 9.7 0.00 0.00 0.00 70 1010.1
20260509182839 30 248 3.2 8.0 0.00 0.00 0.00 71 1010.1
20260509182403 30 262 3.2 8.0 0.00 0.00 0.00 71 1010.1
20260509181846 30 164 4.8 9.7 0.00 0.00 0.00 71 1010.4
20260509181352 30 188 1.6 11.3 0.00 0.00 0.00 72 1010.4
20260509180833 29 217 6.4 11.3 0.00 0.00 0.00 74 1010.4
20260509180340 29 257 4.8 9.7 0.00 0.00 0.00 74 1010.6
20260509175822 29 172 1.6 9.7 0.00 0.00 0.00 73 1010.6
20260509175347 28 155 6.4 9.7 0.00 0.00 0.00 73 1010.6
20260509174832 28 161 4.8 17.7 0.00 0.00 0.00 75 1010.6
20260509174357 28 158 8.0 17.7 0.00 0.00 0.00 76 1010.6
20260509173841 28 196 9.7 16.1 0.00 0.00 0.00 76 1010.6
20260509173324 28 146 9.7 20.9 0.00 0.00 0.00 77 1010.7
20260509172851 29 186 8.0 20.9 0.00 0.00 0.00 76 1010.7
20260509172337 29 129 8.0 17.7 0.00 0.00 0.00 78 1010.7
20260509171823 28 150 9.7 17.7 0.00 0.00 0.00 79 1010.5
20260509171331 28 179 9.7 17.7 0.00 0.00 0.00 81 1010.5
20260509170835 27 198 9.7 17.7 0.00 0.00 0.00 81 1010.5
20260509170320 27 210 6.4 16.1 0.00 0.00 0.00 82 1010.3
20260509165825 27 146 8.0 14.5 0.00 0.00 0.00 84 1010.3
20260509165349 27 122 8.0 11.3 0.00 0.00 0.00 84 1010.3
20260509164831 26 168 6.4 11.3 0.00 0.00 0.00 85 1010.7
20260509164339 26 190 3.2 8.0 0.00 0.00 0.00 87 1010.7
20260509163846 26 191 3.2 8.0 0.00 0.00 0.00 87 1010.7
20260509163327 26 192 3.2 6.4 0.00 0.00 0.00 88 1011.0
20260509162832 26 159 1.6 6.4 0.00 0.00 0.00 88 1011.0
20260509162339 26 188 3.2 6.4 0.00 0.00 0.00 88 1011.0
20260509161842 26 303 0.0 3.2 0.00 0.00 0.00 89 1011.1
20260509161345 25 303 0.0 3.2 0.00 0.00 0.00 89 1011.1
20260509160827 25 303 0.0 3.2 0.00 0.00 0.00 90 1011.1
20260509160333 25 303 0.0 3.2 0.00 0.00 0.00 90 1011.1
20260509155840 25 303 0.0 3.2 0.00 0.00 0.00 90 1011.1
20260509155324 25 303 1.6 4.8 0.00 0.00 0.00 90 1011.1
20260509154828 25 299 1.6 4.8 0.00 0.00 0.00 90 1011.2
20260509154332 25 47 0.0 0.0 0.00 0.00 0.00 90 1011.2
20260509153858 25 296 0.0 0.0 0.00 0.00 0.00 90 1011.2
20260509153341 25 296 0.0 0.0 0.00 0.00 0.00 89 1011.2
20260509152825 25 317 0.0 3.2 0.00 0.00 0.00 90 1011.2
20260509152351 25 174 0.0 3.2 0.00 0.00 0.00 91 1011.2
20260509151855 25 174 0.0 0.0 0.00 0.00 0.00 92 1011.0
20260509151339 25 235 0.0 0.0 0.00 0.00 0.00 92 1011.0
20260509150843 25 235 0.0 0.0 0.00 0.00 0.00 93 1011.0
20260509150328 25 235 0.0 0.0 0.00 0.00 0.00 93 1010.7
20260509145831 25 235 0.0 0.0 0.00 0.00 0.00 93 1010.7
20260509145336 25 235 0.0 0.0 0.00 0.00 0.00 93 1010.7
20260509144823 25 235 0.0 0.0 0.00 0.00 0.00 94 1010.4
20260509144328 24 235 0.0 0.0 0.00 0.00 0.00 94 1010.3
20260509143836 24 141 0.0 0.0 0.00 0.00 0.00 95 1010.3
20260509143340 24 141 0.0 0.0 0.00 0.00 0.00 95 1010.6
20260509142822 24 142 0.0 0.0 0.00 0.00 0.00 95 1010.6
20260509142327 24 142 0.0 0.0 0.00 0.00 0.00 95 1010.6
20260509141832 24 142 0.0 1.6 0.00 0.00 0.00 96 1010.1
20260509141336 24 142 0.0 3.2 0.00 0.00 0.00 96 1010.1
20260509140840 24 142 1.6 4.8 0.00 0.00 0.00 96 1010.1
20260509140325 23 142 4.8 4.8 0.00 0.00 0.00 96 1010.3
20260509135829 23 191 0.0 4.8 0.00 0.00 0.00 96 1010.3
20260509135353 23 191 3.2 4.8 0.00 0.00 0.00 97 1010.3
20260509134835 23 137 0.0 0.0 0.00 0.00 0.00 97 1010.5
20260509134327 23 137 0.0 1.6 0.00 0.00 0.00 97 1010.5
20260509133832 23 137 0.0 6.4 0.00 0.00 0.00 97 1010.5
20260509133336 23 137 1.6 8.0 0.00 0.00 0.00 97 1011.2
20260509132845 23 144 6.4 8.0 0.00 0.00 0.00 97 1011.2
20260509132328 23 178 3.2 4.8 0.00 0.00 0.00 98 1011.2
20260509131852 23 178 0.0 1.6 0.00 0.00 0.00 98 1011.2
20260509131355 23 178 0.0 1.6 0.00 0.00 0.00 98 1011.2
20260509130840 23 178 0.0 1.6 0.00 0.00 0.00 98 1011.2
20260509130325 23 178 0.0 3.2 0.00 0.00 0.00 98 1010.8
20260509125827 23 178 0.0 4.8 0.00 0.00 0.00 98 1010.8
20260509125332 23 178 0.0 4.8 0.00 0.00 0.00 97 1010.8
20260509124855 23 178 3.2 4.8 0.00 0.00 0.00 98 1010.7
20260509124339 23 178 0.0 0.0 0.00 0.00 0.00 98 1010.7
20260509123844 23 178 0.0 0.0 0.00 0.00 0.00 98 1010.7
20260509123332 23 178 0.0 4.8 0.00 0.00 0.00 98 1010.6
20260509122836 23 178 1.6 4.8 0.00 0.00 0.00 98 1010.6
20260509122340 23 183 1.6 4.8 0.00 0.00 0.00 98 1010.6
20260509121824 22 183 3.2 4.8 0.00 0.00 0.00 97 1010.3
20260509121328 22 183 0.0 6.4 0.00 0.00 0.00 97 1010.3
20260509120832 22 183 3.2 6.4 0.00 0.00 0.00 97 1010.3
20260509120335 22 175 1.6 4.8 0.00 0.00 0.00 97 1010.2
20260509115839 22 129 0.0 0.0 0.00 0.00 0.00 97 1010.2
20260509115322 22 129 0.0 0.0 0.00 0.00 0.00 97 1010.2
20260509114828 22 129 0.0 0.0 0.00 0.00 0.00 97 1010.4
20260509114354 22 129 0.0 0.0 0.00 0.00 0.00 97 1010.4
20260509113822 22 129 0.0 0.0 0.00 0.00 0.00 97 1010.4
20260509113327 22 129 0.0 0.0 0.00 0.00 0.00 97 1010.7
20260509112832 22 129 0.0 0.0 0.00 0.00 0.00 97 1010.7
20260509112335 22 129 0.0 0.0 0.00 0.00 0.00 97 1010.7
20260509111820 22 129 0.0 0.0 0.00 0.00 0.00 97 1010.6
20260509111348 22 129 0.0 0.0 0.00 0.00 0.00 97 1010.6
20260509110832 22 129 0.0 0.0 0.00 0.00 0.00 97 1010.6
20260509110357 22 129 0.0 1.6 0.00 0.00 0.00 97 1010.6
20260509105839 22 129 0.0 1.6 0.00 0.00 0.00 97 1010.6
20260509105324 22 129 0.0 0.0 0.00 0.00 0.00 97 1010.6
20260509104831 22 129 0.0 0.0 0.00 0.00 0.00 97 1010.2
20260509104335 22 129 0.0 0.0 0.00 0.00 0.00 97 1010.2
20260509103839 22 129 0.0 0.0 0.00 0.00 0.00 97 1010.2
20260509103327 22 129 0.0 0.0 0.00 0.00 0.00 97 1010.1
20260509102831 22 129 0.0 0.0 0.00 0.00 0.00 97 1010.1
20260509102335 22 129 0.0 0.0 0.00 0.00 0.00 97 1010.1
20260509101838 22 129 0.0 0.0 0.00 0.00 0.00 97 1009.5
20260509101322 22 129 0.0 0.0 0.00 0.00 0.00 97 1009.5
20260509100827 23 129 0.0 4.8 0.00 0.00 0.00 96 1009.5
20260509100332 23 129 3.2 4.8 0.00 0.00 0.00 97 1009.4
20260509095835 23 129 3.2 4.8 0.00 0.00 0.00 97 1009.4
20260509095337 23 129 3.2 4.8 0.00 0.00 0.00 97 1009.4
20260509094823 23 129 0.0 0.0 0.00 0.00 0.00 96 1009.6
20260509094327 23 129 0.0 0.0 0.00 0.00 0.00 96 1009.6
20260509093831 23 129 0.0 0.0 0.00 0.00 0.00 96 1009.6
20260509093356 23 129 0.0 0.0 0.00 0.00 0.00 97 1010.1
20260509092845 23 129 0.0 0.0 0.00 0.00 0.00 97 1010.1
20260509092329 23 129 0.0 0.0 0.00 0.00 0.00 96 1010.1
20260509091834 23 129 0.0 0.0 0.00 0.00 0.00 97 1010.1
20260509091339 23 129 0.0 0.0 0.00 0.00 0.00 96 1010.1
20260509090823 23 129 0.0 0.0 0.00 0.00 0.00 96 1010.1
20260509090328 23 129 0.0 0.0 0.00 0.00 0.00 96 1010.1
20260509085830 23 129 0.0 0.0 0.00 0.00 0.00 96 1010.1
20260509085357 23 129 0.0 0.0 0.00 0.00 0.00 96 1010.1
20260509084823 23 129 0.0 0.0 0.00 0.00 0.00 96 1010.1
20260509084327 23 129 0.0 0.0 0.00 0.00 0.00 96 1010.1
20260509083831 23 129 0.0 1.6 0.00 0.00 0.00 96 1010.1
20260509083323 23 129 0.0 3.2 0.00 0.00 0.00 96 1010.0
20260509082826 23 129 1.6 3.2 0.00 0.00 0.00 96 1010.0
20260509082355 23 129 0.0 3.2 0.00 0.00 0.00 96 1010.0
20260509081839 23 129 0.0 3.2 0.00 0.00 0.00 96 1009.7
20260509081326 23 129 1.6 3.2 0.00 0.00 0.00 96 1009.7
20260509080829 23 129 0.0 4.8 0.00 0.00 0.00 96 1009.7
20260509080353 23 129 1.6 6.4 0.00 0.00 0.00 96 1010.0
20260509075856 23 129 3.2 6.4 0.00 0.00 0.00 96 1010.0
20260509075340 23 129 0.0 3.2 0.00 0.00 0.00 96 1010.0
20260509074846 23 129 0.0 3.2 0.00 0.00 0.00 96 1010.1
20260509074350 23 129 1.6 3.2 0.00 0.00 0.00 96 1010.1
20260509073856 23 129 1.6 4.8 0.00 0.00 0.00 96 1010.1
20260509073340 23 129 0.0 4.8 0.00 0.00 0.00 96 1010.1
20260509072823 23 129 1.6 1.6 0.00 0.00 0.00 96 1010.1
20260509072325 23 129 0.0 6.4 0.00 0.00 0.00 96 1010.1
20260509071831 23 129 1.6 8.0 0.00 0.00 0.00 96 1010.1
20260509071336 23 137 1.6 8.0 0.00 0.00 0.00 96 1010.1
20260509070823 23 130 3.2 6.4 0.00 0.00 0.00 96 1010.1
20260509070326 23 120 3.2 4.8 0.00 0.00 0.00 96 1010.1
20260509065830 23 120 1.6 4.8 0.00 0.00 0.00 96 1010.1
20260509065338 23 120 0.0 6.4 0.00 0.00 0.00 96 1010.1
20260509064822 23 120 3.2 6.4 0.00 0.00 0.00 96 1010.2
20260509064325 23 134 3.2 6.4 0.00 0.00 0.00 96 1010.2
20260509063830 23 124 0.0 0.0 0.00 0.00 0.00 96 1010.2
20260509063337 23 124 0.0 0.0 0.00 0.00 0.00 96 1010.5
20260509062843 23 124 0.0 0.0 0.00 0.00 0.00 96 1010.5
20260509062325 23 124 0.0 0.0 0.00 0.00 0.00 96 1010.5
20260509061830 23 124 0.0 0.0 0.00 0.00 0.00 96 1010.6
20260509061321 23 124 0.0 0.0 0.00 0.00 0.00 96 1010.6
20260509060825 23 124 0.0 0.0 0.00 0.00 0.00 96 1010.6
20260509060332 23 124 0.0 4.8 0.00 0.00 0.00 96 1010.6
20260509055834 23 124 0.0 4.8 0.00 0.00 0.00 96 1010.6
20260509055321 23 124 0.0 4.8 0.00 0.00 0.00 96 1010.6
20260509054846 23 124 1.6 4.8 0.00 0.00 0.00 96 1010.7
20260509054329 23 124 0.0 6.4 0.00 0.00 0.00 96 1010.7
20260509053834 23 124 4.8 6.4 0.00 0.00 0.00 96 1010.7
20260509053340 23 130 3.2 9.7 0.00 0.00 0.00 96 1010.7
20260509052823 22 119 4.8 9.7 0.00 0.00 0.00 96 1010.7
20260509052351 22 121 6.4 9.7 0.00 0.00 0.00 96 1010.7
20260509051856 22 123 6.4 8.0 0.00 0.00 0.00 96 1010.7
20260509051319 22 135 1.6 9.7 0.00 0.00 0.00 96 1010.7
20260509050826 22 146 6.4 9.7 0.00 0.00 0.00 96 1010.7
20260509050328 22 118 6.4 8.0 0.00 0.00 0.00 96 1010.7
20260509045850 22 126 4.8 8.0 0.00 0.00 0.00 96 1010.7
20260509045354 22 134 3.2 8.0 0.00 0.00 0.00 96 1010.7
20260509044824 22 132 4.8 11.3 0.00 0.00 0.00 96 1010.7
20260509044328 22 122 6.4 11.3 0.00 0.00 0.00 96 1010.7
20260509043835 22 125 6.4 8.0 0.00 0.00 0.00 96 1010.7
20260509043343 22 121 1.6 8.0 0.00 0.00 0.00 96 1010.9
20260509042845 22 121 1.6 8.0 0.00 0.00 0.00 96 1010.9
20260509042330 22 124 1.6 8.0 0.00 0.00 0.00 96 1010.9
20260509041832 22 131 1.6 8.0 0.00 0.00 0.00 96 1010.7
20260509041319 22 133 0.0 6.4 0.00 0.00 0.00 96 1010.7